Content
SEND FEEDBACK

Daily
Averages
Monthly
Summary
United States of America

ANCHORAGE - MERRILL FIELD, ALASKA


Home > North America > United States > Alaska
Elevation: 140 feet     Latitude: 61 13N     Longitude: 149 50W

WEATHER
 
SELECT A DAY
Number of Records: 183,676;   Date Range: 1/1/95 - 8/12/14
 
SHARE

PRINT THIS DATA

[ ← Previous Day ]
WEATHER ALMANAC - JANUARY 31, 2013
[ Next Day → ]
[ °C ]   °F
Weather ElementAverageHighLow
Temperature30.2 °F32 °F (12:53 pm)28 °F (12:53 am)
Dewpoint29.9 °F32 °F (12:53 pm)26.6 °F (12:35 am)
Humidity98.7 %100 % (4:53 am)93 % (12:35 am)
Barometer29.83 in29.95 in (11:53 pm)29.69 in (12:35 am)
Wind Speed1.4 mph5.8 mph (9:53 pm)
Weather ElementAverage
Visibility3.8 mi
Wind DirectionE (90.5 °)

Weather ElementTotal
Precipitation0.07 in
Heating Degree Days35 (Base 65)
Averaged from 42 records on January 31, 2013
WEATHER CONDITIONS BREAKOUT
WIND DIRECTION BREAKOUT
WEATHER BY HOUR - JANUARY 31, 2013
[ °C ]   °F
Local TimeTemperatureDewpointHumidityBarometerVisibilityWind DirectionWind SpeedGust SpeedPrecipitationEventsConditions
12:35 AM28.4 °F26.6 °F93 %29.69 in10.0 miNorth (10°)4.6 mph0.00 inMostly Cloudy
12:53 AM28.0 °F27.0 °F96 %29.70 in10.0 miNNW (340°)3.5 mph0.00 inOvercast
1:53 AM28.0 °F27.0 °F96 %29.72 in10.0 miCalmOvercast
2:30 AM28.4 °F26.6 °F93 %29.72 in10.0 miNW (310°)3.5 mph0.00 inRainLight Rain
2:53 AM28.0 °F27.0 °F96 %29.74 in10.0 miCalm0.00 inLight Freezing Drizzle
3:25 AM28.4 °F26.6 °F93 %29.73 in7.0 miNorth (350°)3.5 mph0.00 inSnowLight Snow
3:53 AM28.0 °F27.0 °F96 %29.74 in3.0 miCalm0.00 inSnowLight Snow
4:53 AM28.0 °F28.0 °F100 %29.75 in10.0 miNNE (30°)3.5 mph0.00 inLight Freezing Drizzle
5:27 AM28.4 °F26.6 °F93 %29.75 in3.0 miCalm0.01 inSnowLight Snow
5:39 AM28.4 °F28.4 °F100 %29.75 in3.0 miCalm0.02 inSnowLight Snow
5:51 AM28.4 °F28.4 °F100 %29.75 in5.0 miCalm0.02 inSnowLight Snow
5:53 AM28.9 °F28.0 °F96 %29.76 in5.0 miCalm0.02 inSnowLight Snow
5:59 AM28.4 °F28.4 °F100 %29.75 in6.0 miCalm0.00 inSnowLight Snow
6:53 AM28.9 °F28.0 °F96 %29.78 in7.0 miCalm0.00 inOvercast
7:53 AM28.9 °F28.9 °F100 %29.79 in9.0 miCalm0.00 inOvercast
8:53 AM30.0 °F30.0 °F100 %29.80 in10.0 miCalmOvercast
9:49 AM30.2 °F30.2 °F100 %29.81 in9.0 miCalmOvercast
9:53 AM30.0 °F30.0 °F100 %29.82 in10.0 miCalmOvercast
10:53 AM30.0 °F28.9 °F96 %29.84 in3.0 miCalmOvercast
11:07 AM30.2 °F30.2 °F100 %29.84 in1.0 miWNW (290°)3.5 mphOvercast
11:16 AM30.2 °F30.2 °F100 %29.84 in0.8 miCalmOvercast
11:17 AM30.2 °F30.2 °F100 %29.84 in0.8 miNW (320°)3.5 mphOvercast
11:53 AM30.9 °F30.9 °F100 %29.86 in0.5 miCalm0.00 inFogLight Freezing Fog
12:26 PM30.2 °F30.2 °F100 %29.86 in0.5 miCalmFogLight Freezing Fog
12:53 PM32.0 °F32.0 °F100 %29.87 in0.5 miCalmFogFog
1:00 PM32.0 °F32.0 °F100 %29.86 in0.8 miCalmOvercast
1:13 PM32.0 °F32.0 °F100 %29.86 in0.5 miCalmFogFog
1:46 PM32.0 °F32.0 °F100 %29.87 in0.5 miCalmFogFog
1:53 PM32.0 °F32.0 °F100 %29.88 in0.5 miCalmFogFog
2:53 PM32.0 °F32.0 °F100 %29.90 in0.8 miCalmMist
3:47 PM32.0 °F32.0 °F100 %29.89 in4.0 miCalmOvercast
3:51 PM32.0 °F32.0 °F100 %29.89 in1.5 miCalmOvercast
3:53 PM32.0 °F32.0 °F100 %29.90 in1.5 miCalmOvercast
4:06 PM32.0 °F32.0 °F100 %29.89 in0.5 miCalmFogFog
4:53 PM32.0 °F32.0 °F100 %29.90 in0.2 miNNW (340°)3.5 mphFogFog
5:53 PM30.9 °F30.9 °F100 %29.91 in0.5 miNorth (350°)3.5 mphFogLight Freezing Fog
6:53 PM32.0 °F32.0 °F100 %29.91 in0.8 miNE (40°)3.5 mphOvercast
7:53 PM30.9 °F30.9 °F100 %29.92 in0.2 miNNW (340°)4.6 mphFogLight Freezing Fog
8:53 PM32.0 °F32.0 °F100 %29.93 in0.2 miNNE (20°)3.5 mphFogFog
9:53 PM30.9 °F30.9 °F100 %29.93 in0.5 miNorth (350°)5.8 mphFogLight Freezing Fog
10:53 PM30.9 °F30.9 °F100 %29.94 in0.5 miNorth (350°)3.5 mphFogLight Freezing Fog
11:53 PM30.9 °F30.9 °F100 %29.95 in0.5 miNorth (360°)4.6 mphFogLight Freezing Fog
Hourly data recorded from PAMR, located miles away from Anchorage - Merrill Field, Alaska







STORIES FROM OUR PARTNERS